CAPE
0 0 0 0 0 0 0 0 0 0 0 0 0 0 0 0 0 0 0 0 0 0 0 0 0 0 165 694 638 431 324 283 177 187 188 128 30 10 30 168 108 36 116 271
0 0 0 0 0 0 0 0 0 0 0 0 0 0 0 0 0 0 0 0 0 0 0 0 0 0 54 461 1019 460 369 247 317 337 512 418 259 227 142 333 245 89 332 402
0 0 0 0 0 0 0 0 0 0 0 0 0 0 0 0 0 0 0 0 0 0 0 0 0 0 81 581 905 878 563 295 238 449 702 624 547 461 351 368 397 264 533 646
0 0 0 0 0 0 0 0 0 0 0 0 0 0 0 0 0 0 0 0 0 0 0 0 0 0 0 498 660 1057 576 390 675 672 746 777 638 592 595 541 408 312 554 374
0 0 0 0 0 0 0 0 0 0 0 0 0 0 0 0 0 0 0 0 0 0 0 0 0 0 0 80 784 684 670 387 708 871 870 778 752 619 488 193 350 224 136 120
0 0 0 0 0 0 0 0 0 0 0 0 0 0 0 0 0 0 0 0 0 0 0 0 0 0 0 0 458 715 455 504 524 891 778 752 739 606 384 249 219 219 102 39
0 0 0 0 0 0 0 0 0 0 0 0 0 0 0 0 0 0 0 0 0 0 0 0 0 0 0 0 170 694 608 689 293 440 676 786 507 342 174 105 242 182 35 10
0 0 0 0 0 0 0 0 0 0 0 0 0 0 0 0 0 0 0 0 0 0 0 0 0 0 0 0 47 442 714 688 510 370 290 600 622 314 113 4 40 49 28 1
1 0 0 0 0 0 0 0 1 2 0 0 0 0 0 0 0 0 0 0 0 0 0 0 0 0 0 0 20 230 861 1001 433 401 303 184 469 213 137 17 0 22 0 0
9 2 0 0 0 0 0 1 2 6 0 0 0 0 0 0 0 0 0 0 0 0 0 0 0 0 0 0 0 378 589 1100 489 363 419 204 448 267 115 24 4 8 3 0
3 2 0 0 0 0 0 0 0 1 0 1 0 0 0 0 0 0 0 0 0 0 0 0 0 0 0 0 0 373 779 1203 1055 676 453 478 752 328 47 1 2 1 0 0
0 4 0 0 0 0 0 0 0 0 0 0 1 0 0 0 0 0 0 0 0 0 0 0 2 0 0 0 0 462 1262 1281 1411 1255 701 745 453 154 10 4 0 0 0 0
1 0 0 0 0 0 0 0 1 1 1 0 0 0 0 0 0 0 0 0 0 0 0 0 0 0 0 309 621 1370 1631 1422 1350 997 683 427 45 5 2 3 0 0 0 0
2 0 1 0 0 0 0 0 1 0 0 0 0 0 0 0 0 0 0 0 0 0 0 0 0 31 1 221 2150 1650 1775 1486 1137 939 570 98 14 4 4 1 0 0 0 0
1 2 0 0 0 0 0 1 1 1 1 0 0 0 0 0 0 0 0 0 12 16 0 0 6 95 144 251 1793 1404 1560 1221 843 200 23 4 4 5 3 0 0 0 0 0
0 0 0 0 0 0 0 0 1 0 10 2 2 0 0 3 0 0 0 10 60 8 0 4 205 524 308 573 1215 1092 913 505 54 10 5 5 4 4 5 1 0 0 0 0
0 0 0 0 0 0 0 1 1 0 2 3 0 0 3 1 0 0 0 0 1 36 6 73 467 613 588 837 865 673 247 33 4 6 4 4 4 4 2 0 0 0 0 0
1 0 2 1 0 0 0 0 0 2 1 1 0 2 2 1 0 0 0 0 0 129 200 479 637 728 971 805 465 145 20 4 4 4 4 4 4 6 5 0 0 0 0 0
0 0 0 1 0 0 3 1 1 3 0 0 0 0 0 2 3 0 0 2 44 192 38 192 688 495 485 230 39 6 3 3 3 4 4 4 5 0 0 0 0 0 0 0
0 1 1 0 0 0 0 0 0 2 0 1 0 1 1 1 1 0 0 0 2 29 0 214 214 103 12 2 2 3 2 2 3 2 4 5 0 0 0 0 0 0 0 0
0 0 0 0 0 0 2 0 0 0 0 0 2 2 3 2 1 0 0 0 0 3 0 33 32 3 3 1 0 2 2 4 3 3 3 6 0 0 0 0 0 0 0 0
0 0 0 0 0 0 0 0 1 1 1 3 1 3 5 2 0 1 0 0 12 45 67 8 12 3 1 0 0 0 1 3 4 1 1 1 0 0 0 0 0 0 0 0
0 0 0 0 0 0 0 0 3 2 4 3 3 2 1 1 1 0 0 8 62 20 6 2 2 2 2 1 0 0 3 4 3 2 0 0 0 0 0 0 0 0 0 0
1 1 0 1 0 0 0 1 2 3 3 1 2 1 1 1 0 2 0 0 2 4 2 2 2 2 2 1 0 1 1 1 0 0 0 0 0 0 0 0 0 0 0 0
1 0 0 0 0 0 0 0 1 2 2 1 1 1 0 0 2 2 1 1 1 3 2 1 2 3 1 1 2 0 0 0 0 0 0 0 0 0 0 0 0 0 0 0
0 0 0 0 0 1 0 1 2 3 1 2 1 0 0 0 2 2 0 2 2 3 2 3 2 3 2 1 0 0 0 0 0 0 0 0 0 0 0 0 0 0 0 0
CIN
-0 -0 -0 -0 -0 -0 -0 -0 -0 -0 -0 -0 -0 -0 -0 -0 -0 -0 -0 -0 -0 -0 -0 -0 -0 -0 -142 -113 -53 -69 -177 -278 -351 -370 -319 -366 -477 -470 -388 -261 -270 -364 -368 -317
-0 -0 -0 -0 -0 -0 -0 -0 -0 -0 -0 -0 -0 -0 -0 -0 -0 -0 -0 -0 -0 -0 -0 -0 -0 -0 -162 -126 -77 -134 -224 -372 -340 -341 -257 -278 -352 -335 -250 -160 -149 -251 -204 -203
-0 -0 -0 -0 -0 -0 -0 -0 -0 -0 -0 -0 -0 -0 -0 -0 -0 -0 -0 -0 -0 -0 -0 -0 -0 -0 -154 -98 -120 -84 -213 -340 -384 -297 -180 -196 -182 -225 -162 -117 -78 -150 -119 -84
-0 -0 -0 -0 -0 -0 -0 -0 -0 -0 -0 -0 -0 -0 -0 -0 -0 -0 -0 -0 -0 -0 -0 -0 -0 -0 -7 -64 -125 -99 -150 -246 -236 -216 -198 -158 -202 -180 -120 -139 -105 -125 -125 -99
-0 -0 -0 -0 -0 -0 -0 -0 -0 -0 -0 -0 -0 -0 -0 -0 -0 -0 -0 -0 -0 -0 -0 -0 -0 -0 -0 -138 -87 -148 -133 -214 -204 -189 -198 -170 -117 -109 -131 -244 -123 -113 -176 -196
-0 -0 -0 -0 -0 -0 -0 -0 -0 -0 -0 -0 -0 -0 -0 -0 -0 -0 -0 -0 -0 -0 -0 -0 -0 -0 -0 -0 -91 -124 -127 -142 -215 -147 -172 -166 -98 -98 -136 -66 -50 -90 -150 -273
-0 -0 -0 -0 -0 -0 -0 -0 -0 -0 -0 -0 -0 -0 -0 -0 -0 -0 -0 -0 -0 -0 -0 -0 -0 -0 -0 -0 -126 -102 -121 -96 -205 -204 -172 -125 -146 -107 -66 -27 -28 -75 -158 -306
-0 -0 -0 -0 -0 -0 -0 -0 -0 -0 -0 -0 -0 -0 -0 -0 -0 -0 -0 -0 -0 -0 -0 -0 -0 -0 -0 -0 -119 -70 -93 -94 -170 -224 -259 -130 -95 -142 -185 -74 -19 -38 -126 -191
-2 -0 -0 -0 -0 -0 -0 -0 -7 -1 -0 -0 -0 -0 -0 -0 -0 -0 -0 -0 -0 -0 -0 -0 -0 -0 -0 -0 -127 -84 -63 -82 -177 -206 -206 -197 -106 -195 -211 -348 -0 -65 -0 -0
-9 -0 -0 -0 -0 -0 -0 -8 -1 -1 -4 -0 -0 -0 -0 -0 -0 -0 -0 -0 -0 -0 -0 -0 -0 -0 -0 -0 -0 -82 -67 -54 -141 -209 -171 -228 -138 -188 -226 -257 -10 -112 -0 -0
-24 -1 -0 -0 -0 -0 -0 -0 -0 -4 -0 -3 -0 -0 -0 -0 -0 -0 -0 -0 -0 -0 -0 -0 -0 -0 -0 -0 -0 -103 -71 -51 -89 -147 -141 -158 -67 -127 -176 -0 -0 -0 -0 -0
-15 -6 -0 -0 -0 -0 -0 -0 -0 -0 -0 -0 -0 -0 -0 -0 -0 -0 -0 -0 -0 -0 -0 -0 -112 -0 -0 -0 -0 -115 -62 -44 -46 -85 -130 -90 -95 -163 -173 -0 -0 -0 -0 -0
-17 -0 -0 -0 -0 -0 -0 -9 -0 -0 -0 -0 -0 -0 -0 -0 -0 -0 -0 -0 -0 -0 -0 -0 -0 -0 -0 -85 -86 -84 -40 -18 -33 -119 -102 -96 -232 -226 -0 -0 -0 -0 -0 -0
-7 -0 -0 -1 -0 -0 -0 -0 -0 -0 -0 -0 -0 -0 -0 -0 -0 -0 -0 -0 -0 -0 -0 -0 -0 -231 -43 -124 -31 -37 -2 -6 -46 -110 -141 -257 -389 -0 -0 -0 -0 -0 -0 -0
-0 -1 -0 -0 -0 -0 -0 -0 -0 -0 -0 -0 -0 -0 -0 -0 -0 -0 -0 -0 -38 -39 -153 -75 -225 -178 -65 -111 -11 -16 -0 -18 -63 -211 -249 -0 -0 -0 -0 -0 -0 -0 -0 -0
-0 -0 -0 -0 -0 -0 -0 -0 -1 -0 -0 -0 -4 -0 -0 -2 -0 -0 -0 -83 -21 -22 -0 -177 -159 -22 -51 -88 -19 -20 -14 -71 -230 -331 -0 -0 -0 -0 -0 -0 -0 -0 -0 -0
-0 -0 -0 -0 -0 -0 -0 -0 -0 -0 -0 -0 -0 -0 -0 -0 -0 -0 -0 -0 -26 -38 -31 -162 -81 -32 -68 -68 -28 -48 -84 -184 -0 -0 -0 -0 -0 -0 -0 -0 -0 -0 -0 -0
-3 -0 -0 -0 -0 -0 -0 -0 -0 -0 -0 -0 -0 -0 -0 -0 -0 -0 -0 -0 -0 -11 -86 -43 -16 -35 -78 -128 -159 -244 -289 -0 -0 -0 -0 -0 -0 -0 -0 -0 -0 -0 -0 -0
-0 -0 -0 -0 -0 -0 -0 -0 -0 -0 -0 -0 -0 -0 -0 -0 -0 -0 -0 -29 -46 -6 -119 -80 -76 -216 -175 -253 -366 -70 -0 -0 -0 -0 -0 -0 -0 -0 -0 -0 -0 -0 -0 -0
-0 -2 -0 -0 -0 -0 -0 -0 -0 -0 -0 -0 -0 -0 -0 -0 -0 -0 -0 -0 -28 -57 -0 -36 -135 -321 -362 -0 -0 -0 -0 -0 -0 -0 -0 -0 -0 -0 -0 -0 -0 -0 -0 -0
-0 -0 -0 -0 -0 -0 -0 -0 -0 -0 -0 -0 -0 -0 -0 -0 -0 -0 -0 -0 -0 -11 -0 -105 -240 -318 -0 -0 -0 -0 -0 -0 -0 -0 -0 -0 -0 -0 -0 -0 -0 -0 -0 -0
-0 -0 -0 -0 -0 -0 -0 -0 -0 -0 -0 -0 -0 -0 -0 -0 -0 -0 -0 -0 -120 -59 -5 -27 -212 -0 -0 -0 -0 -0 -0 -0 -0 -0 -0 -0 -0 -0 -0 -0 -0 -0 -0 -0
-0 -0 -0 -0 -0 -0 -0 -0 -0 -0 -0 -0 -0 -0 -0 -0 -0 -0 -0 -22 -7 -10 -96 -0 -0 -0 -0 -0 -0 -0 -0 -0 -0 -0 -0 -0 -0 -0 -0 -0 -0 -0 -0 -0
-0 -0 -0 -0 -0 -0 -0 -0 -0 -0 -0 -1 -0 -0 -0 -0 -0 -0 -58 -0 -27 -0 -0 -0 -0 -0 -0 -0 -0 -0 -0 -0 -0 -0 -0 -0 -0 -0 -0 -0 -0 -0 -0 -0
-0 -0 -0 -0 -0 -0 -0 -0 -0 -0 -0 -0 -0 -0 -0 -0 -0 -0 -0 -0 -0 -0 -0 -0 -0 -0 -0 -0 -0 -0 -0 -0 -0 -0 -0 -0 -0 -0 -0 -0 -0 -0 -0 -0
-0 -0 -0 -0 -0 -0 -0 -0 -0 -0 -0 -0 -0 -0 -0 -0 -0 -0 -0 -0 -0 -0 -0 -0 -0 -0 -0 -0 -0 -0 -0 -0 -0 -0 -0 -0 -0 -0 -0 -0 -0 -0 -0 -0
Wind_Speed
21 23 24 22 8 31 38 35 34 35 27 24 40 42 44 41 41 41 44 43 46 48 44 32 28 26 20 18 22 30 26 21 18 17 17 15 16 19 20 20 17 15 11 7
25 30 36 32 30 30 35 34 37 34 28 24 14 28 47 43 43 45 45 45 44 47 46 38 31 27 24 20 20 25 28 24 23 20 20 16 15 16 18 17 17 15 11 8
32 32 33 35 28 36 38 30 30 25 38 28 21 28 16 42 38 40 45 45 43 46 47 41 34 29 26 22 20 24 28 28 25 20 18 15 17 12 20 18 17 16 13 9
30 29 28 34 39 37 41 23 27 29 28 22 22 45 27 40 45 43 48 50 50 50 49 44 39 32 30 28 23 24 28 28 25 24 19 16 19 18 19 12 16 14 13 9
37 36 39 39 41 36 39 28 20 23 28 29 23 25 27 23 41 44 44 47 48 49 48 48 43 39 33 30 29 25 26 27 25 22 22 16 19 19 22 21 21 19 14 7
35 30 28 27 25 25 31 32 26 25 27 25 27 17 37 24 15 26 24 33 43 45 44 45 42 40 36 33 30 29 28 29 29 25 21 17 17 15 13 11 11 16 13 8
33 25 19 22 30 31 30 32 32 31 25 29 24 18 26 20 20 22 23 34 39 41 40 42 44 42 37 34 32 32 31 33 32 28 22 17 15 12 11 8 19 11 14 7
27 28 26 28 30 26 26 18 16 20 31 38 29 23 29 14 20 26 28 36 36 38 38 41 44 43 40 36 35 31 35 36 33 28 23 19 17 12 12 15 11 13 6 4
32 24 38 31 10 19 19 16 14 18 18 29 31 34 36 36 35 27 24 23 28 35 38 40 41 45 42 40 36 34 35 37 32 30 25 21 18 15 14 16 12 9 6 4
26 38 25 20 23 14 8 13 19 16 20 19 22 31 30 23 20 19 23 28 31 35 38 39 37 42 44 43 40 37 32 36 34 30 27 22 17 13 10 10 9 10 3 4
21 21 24 29 17 17 18 15 16 19 20 25 32 29 25 29 23 25 30 31 35 39 38 38 33 28 35 42 42 38 32 34 35 31 27 23 18 13 12 11 10 11 3 5
14 22 25 14 9 11 10 11 15 15 17 22 33 47 38 28 25 32 34 39 39 37 41 39 37 36 33 40 41 39 35 33 34 29 24 23 20 16 14 12 12 7 4 4
17 19 29 24 20 18 16 15 11 7 10 12 29 34 27 25 29 38 39 39 40 39 39 42 40 39 32 36 41 39 36 35 34 29 25 22 19 15 14 13 11 9 6 4
12 14 10 12 16 19 19 17 15 14 17 14 18 43 43 45 48 46 45 44 41 37 36 40 41 38 34 29 38 37 36 34 32 28 26 22 18 16 15 13 14 10 7 7
9 16 11 11 13 14 14 12 14 8 10 16 19 16 44 33 40 43 44 40 32 31 40 39 41 39 38 25 35 35 35 32 31 29 26 21 17 15 15 16 13 11 10 7
17 17 20 20 15 10 10 8 4 9 15 15 13 40 29 31 33 36 35 35 34 41 34 36 38 38 39 28 34 33 33 32 31 29 24 19 16 15 17 17 10 14 11 7
17 21 24 23 19 11 2 9 8 15 11 14 15 19 34 35 37 38 40 33 32 33 32 35 38 39 34 29 33 32 32 31 29 26 23 20 17 17 16 18 15 14 10 9
17 24 21 16 19 12 12 13 15 18 12 21 30 27 35 36 37 33 26 27 28 29 28 28 32 32 26 28 29 28 27 28 28 25 22 20 19 17 16 20 16 13 9 9
14 25 22 16 17 6 9 16 9 15 11 20 35 32 32 33 33 31 19 26 27 22 22 23 26 29 23 29 27 27 25 26 26 25 22 21 21 23 17 16 14 10 10 12
17 17 15 19 14 11 14 26 11 13 15 26 32 27 25 27 25 22 22 23 21 20 18 21 26 27 29 27 26 24 22 23 23 22 24 26 26 24 21 16 15 11 13 13
28 24 18 17 12 12 25 35 34 23 17 29 24 25 21 23 22 24 24 23 23 22 24 28 27 26 28 26 24 21 19 18 19 21 25 29 26 24 20 16 15 11 11 14
24 25 22 20 14 12 29 30 31 30 12 22 22 24 24 22 21 20 20 22 27 34 34 30 30 29 28 26 25 21 18 21 26 25 27 28 26 22 19 16 12 14 16 14
22 19 21 12 7 17 21 31 29 25 21 26 24 21 21 18 18 16 15 13 22 37 32 33 32 30 25 22 22 29 23 28 29 26 23 24 23 21 21 15 16 15 12 13
21 17 14 15 15 8 16 19 27 27 22 22 19 20 19 15 13 11 10 15 24 34 33 35 31 28 23 22 25 37 43 38 32 29 27 25 28 21 15 11 11 14 16 19
21 17 15 8 7 25 4 23 24 22 15 14 16 15 16 11 6 6 6 16 29 32 28 28 27 30 32 34 33 32 30 31 31 33 40 35 27 17 16 13 12 13 8 19
18 15 12 9 17 19 19 20 21 16 12 9 12 11 7 4 5 6 8 16 26 30 29 30 33 36 35 34 34 35 37 35 45 38 35 23 18 17 17 19 17 14 22 24
Wind_Direction
324 320 318 322 253 255 277 262 257 300 321 324 296 291 283 283 281 276 268 266 260 255 257 267 271 267 267 256 234 228 221 213 208 212 218 232 237 242 246 251 255 254 265 274
311 300 277 268 310 296 273 260 280 309 317 322 265 250 266 281 278 273 271 266 263 255 255 261 267 265 260 253 235 230 225 218 218 223 238 237 231 242 248 248 255 254 260 270
294 296 303 298 312 298 295 314 313 290 305 313 311 254 265 278 282 279 270 267 265 256 253 256 261 261 258 250 239 227 226 225 229 223 231 236 245 247 245 250 254 254 259 270
294 308 310 297 293 305 269 321 315 310 310 306 320 266 245 284 274 274 268 265 262 258 252 253 256 259 256 251 244 231 225 229 234 232 228 229 238 233 245 242 252 252 255 265
285 296 291 292 297 309 307 320 313 312 309 303 306 307 304 308 279 275 273 265 263 259 254 252 252 254 255 253 245 238 229 232 231 226 237 241 238 243 251 255 248 249 243 254
298 317 312 313 328 330 327 327 319 311 306 285 303 293 252 306 316 305 294 285 263 261 259 256 253 250 251 251 246 242 232 234 233 234 236 235 237 239 247 242 238 232 240 248
310 319 339 338 322 325 329 329 319 311 305 298 306 292 229 303 308 308 304 269 256 262 262 260 254 247 246 247 244 240 234 233 234 237 236 228 226 243 249 250 215 228 244 259
318 320 331 327 329 327 325 328 328 320 305 298 304 298 294 305 303 296 291 277 265 256 267 267 256 248 243 243 242 239 235 232 234 231 224 224 229 232 235 242 270 254 246 275
305 324 306 273 339 344 342 335 335 319 313 304 296 292 291 290 286 293 296 298 289 279 272 269 265 248 241 239 240 237 236 232 230 228 225 232 237 234 240 254 236 220 158 45
331 282 340 346 346 344 323 338 333 327 323 320 316 296 290 302 304 302 297 296 291 285 281 271 272 250 242 239 237 235 235 229 227 224 223 225 230 235 222 215 215 202 192 64
345 340 335 334 353 346 340 339 333 321 311 312 305 304 302 293 293 298 292 296 293 280 272 274 268 258 245 236 233 231 231 228 224 219 223 221 223 215 201 198 177 191 255 106
350 338 333 334 317 345 343 332 335 324 324 310 302 267 284 297 295 290 293 291 293 290 273 272 266 257 249 237 229 227 227 224 218 213 209 213 216 219 213 191 184 170 161 124
349 344 332 343 358 7 359 354 335 277 294 268 301 298 314 297 291 285 293 287 288 286 281 272 266 251 245 238 223 222 221 219 214 207 202 208 213 211 194 181 176 165 157 147
339 335 314 311 320 331 330 328 327 313 315 289 254 263 283 278 277 283 283 291 294 291 293 271 254 249 240 237 218 217 215 213 209 203 201 207 210 202 189 185 168 164 166 148
21 344 338 310 300 296 290 302 261 270 271 310 272 295 283 298 288 285 281 295 303 306 277 257 248 241 226 229 213 211 210 206 204 200 200 204 203 196 185 175 171 180 166 147
1 353 349 341 323 305 290 252 339 345 344 342 333 296 315 304 299 292 297 296 298 281 278 256 244 230 219 222 206 202 203 199 196 196 197 195 192 186 175 175 170 174 154 149
8 359 354 348 359 259 173 96 26 359 357 350 346 345 309 303 297 290 277 256 259 257 262 248 231 216 205 209 194 193 195 195 195 191 191 189 185 183 176 164 155 171 166 116
12 0 3 355 314 32 47 37 29 4 350 360 333 346 292 288 282 262 243 242 246 268 252 237 209 199 199 190 183 185 188 189 186 185 184 182 174 171 170 173 151 166 133 105
18 3 4 15 3 9 32 19 4 349 335 2 321 297 285 280 276 262 231 267 263 254 234 222 188 175 177 174 172 175 178 181 179 177 174 169 161 148 155 140 164 155 127 92
12 11 15 6 10 23 19 289 332 8 13 304 300 289 280 278 267 252 254 276 246 228 223 188 172 159 161 164 161 165 174 179 174 173 165 157 148 143 136 144 167 172 96 80
352 4 11 6 10 0 328 320 331 8 20 297 288 282 272 274 261 255 260 255 234 222 205 180 164 149 155 154 153 157 160 165 166 160 158 147 139 136 137 142 172 110 92 78
357 2 6 5 12 18 336 345 339 328 296 283 280 278 274 276 262 255 242 233 202 185 183 163 155 154 149 147 139 140 144 147 141 133 155 135 128 136 140 153 153 97 86 78
2 5 0 19 14 357 358 313 298 284 282 290 285 273 269 267 257 247 223 211 102 161 159 155 152 148 151 149 132 115 123 133 130 137 128 128 129 138 156 131 103 91 83 77
1 11 13 11 12 352 262 273 293 293 285 285 277 273 270 254 246 194 176 157 157 156 147 150 141 133 136 128 123 117 116 115 120 131 136 144 155 149 138 128 100 89 85 82
3 12 9 2 268 283 30 281 286 285 279 274 278 273 281 260 259 175 120 152 152 151 142 145 135 121 123 125 127 136 137 140 142 149 153 156 158 121 107 99 93 86 70 79
17 16 20 13 283 257 257 271 278 269 268 256 266 279 275 271 44 116 70 162 161 145 145 138 125 118 120 135 144 151 154 153 151 154 157 151 130 116 105 97 89 76 76 73